TimeEET,TemperatureF,Dew PointF,Humidity,Sea Level PressureIn,VisibilityMPH,Wind Direction,Wind SpeedMPH,Gust SpeedMPH,PrecipitationIn,Events,Conditions,WindDirDegrees,DateUTC
1:50 AM,57.2,55.4,94,29.92,3.7,North,6.9,-,N/A,,Overcast,350,2012-11-19 23:50:00
4:50 AM,60.8,55.4,82,29.92,5.0,NW,4.6,-,N/A,Rain,Light Rain,310,2012-11-20 02:50:00
5:20 AM,57.2,55.4,94,29.92,6.2,NNW,5.8,-,N/A,,Mostly Cloudy,340,2012-11-20 03:20:00
5:50 AM,57.2,55.4,94,29.92,6.2,North,4.6,-,N/A,,Mostly Cloudy,350,2012-11-20 03:50:00
6:20 AM,57.2,55.4,94,29.92,6.2,Calm,Calm,-,N/A,,Mostly Cloudy,0,2012-11-20 04:20:00
6:50 AM,57.2,55.4,94,29.92,6.2,Calm,Calm,-,N/A,,Mostly Cloudy,0,2012-11-20 04:50:00
7:20 AM,57.2,53.6,88,29.92,3.1,Calm,Calm,-,N/A,,Mostly Cloudy,0,2012-11-20 05:20:00
7:50 AM,57.2,53.6,88,29.92,3.1,Calm,Calm,-,N/A,,Mostly Cloudy,0,2012-11-20 05:50:00
8:20 AM,57.2,55.4,94,29.92,2.5,Calm,Calm,-,N/A,,Mostly Cloudy,0,2012-11-20 06:20:00
8:50 AM,57.2,55.4,94,29.92,0.9,NNW,5.8,-,N/A,Rain,Light Rain,330,2012-11-20 06:50:00
9:20 AM,57.2,55.4,94,29.95,0.9,NNW,6.9,-,N/A,Rain,Rain,340,2012-11-20 07:20:00
9:50 AM,59.0,57.2,94,29.95,0.9,NNE,5.8,-,N/A,Rain,Rain,30,2012-11-20 07:50:00
10:20 AM,59.0,57.2,94,29.95,0.9,North,5.8,-,N/A,Rain,Rain,10,2012-11-20 08:20:00
10:50 AM,59.0,57.2,94,29.95,0.9,North,4.6,-,N/A,Rain,Rain,350,2012-11-20 08:50:00
11:20 AM,57.2,57.2,100,29.98,0.9,NW,6.9,-,N/A,Rain-Thunderstorm,Thunderstorms and Rain,320,2012-11-20 09:20:00
11:50 AM,57.2,57.2,100,29.98,0.9,Calm,Calm,-,N/A,Rain-Thunderstorm,Light Thunderstorms and Rain,0,2012-11-20 09:50:00
12:20 PM,57.2,55.4,94,29.95,6.2,NE,6.9,-,N/A,,Overcast,40,2012-11-20 10:20:00
12:50 PM,59.0,57.2,94,29.95,6.2,Calm,Calm,-,N/A,,Mostly Cloudy,0,2012-11-20 10:50:00
1:20 PM,60.8,59.0,94,29.95,6.2,Calm,Calm,-,N/A,,Mostly Cloudy,0,2012-11-20 11:20:00
1:50 PM,60.8,59.0,94,29.92,6.2,North,4.6,-,N/A,,Mostly Cloudy,10,2012-11-20 11:50:00
2:20 PM,60.8,59.0,94,29.92,6.2,Calm,Calm,-,N/A,,Mostly Cloudy,0,2012-11-20 12:20:00
2:50 PM,62.6,59.0,88,29.92,6.2,Calm,Calm,-,N/A,,Mostly Cloudy,0,2012-11-20 12:50:00
3:20 PM,62.6,59.0,88,29.92,6.2,Calm,Calm,-,N/A,,Mostly Cloudy,0,2012-11-20 13:20:00
3:50 PM,62.6,59.0,88,29.92,5.0,Calm,Calm,-,N/A,,Mostly Cloudy,0,2012-11-20 13:50:00
4:20 PM,62.6,59.0,88,29.95,3.7,Calm,Calm,-,N/A,,Mostly Cloudy,0,2012-11-20 14:20:00
4:50 PM,60.8,59.0,94,29.95,3.7,Calm,Calm,-,N/A,,Mostly Cloudy,0,2012-11-20 14:50:00
5:20 PM,60.8,57.2,88,29.95,3.1,Calm,Calm,-,N/A,,Overcast,0,2012-11-20 15:20:00
5:50 PM,59.0,57.2,94,29.95,3.1,Calm,Calm,-,N/A,,Overcast,0,2012-11-20 15:50:00
6:20 PM,59.0,57.2,94,29.95,3.1,Calm,Calm,-,N/A,,Overcast,0,2012-11-20 16:20:00
6:50 PM,59.0,57.2,94,29.95,3.1,Calm,Calm,-,N/A,,Overcast,0,2012-11-20 16:50:00
7:20 PM,59.0,57.2,94,29.98,3.1,Calm,Calm,-,N/A,,Light Drizzle,0,2012-11-20 17:20:00
7:50 PM,59.0,57.2,94,29.98,3.1,Calm,Calm,-,N/A,Rain,Rain,0,2012-11-20 17:50:00
10:50 PM,57.2,55.4,94,30.01,6.2,North,3.5,-,N/A,,Mostly Cloudy,10,2012-11-20 20:50:00